| time (UTC) | temp F | wind direction | speed MPH | gust MPH | rain 1hr in | rain 24hr in | rain mn in | humidity % | barometer mb |
| 20260508232815 | 99 | 281 | 9.0 | 18.0 | 0.00 | 0.00 | 0.00 | 12 | 1012.2 |
| 20260508232311 | 99 | 293 | 5.0 | 13.0 | 0.00 | 0.00 | 0.00 | 11 | 1012.0 |
| 20260508231810 | 99 | 274 | 9.0 | 20.0 | 0.00 | 0.00 | 0.00 | 12 | 1011.8 |
| 20260508231306 | 99 | 267 | 7.0 | 20.0 | 0.00 | 0.00 | 0.00 | 12 | 1012.2 |
| 20260508230803 | 100 | 278 | 6.0 | 18.0 | 0.00 | 0.00 | 0.00 | 12 | 1012.0 |
| 20260508230259 | 101 | 280 | 6.0 | 19.0 | 0.00 | 0.00 | 0.00 | 12 | 1012.0 |
| 20260508225757 | 100 | 249 | 10.0 | 21.0 | 0.00 | 0.00 | 0.00 | 12 | 1012.3 |
| 20260508225253 | 102 | 263 | 9.0 | 16.0 | 0.00 | 0.00 | 0.00 | 11 | 1012.3 |
| 20260508224751 | 102 | 275 | 8.0 | 20.0 | 0.00 | 0.00 | 0.00 | 11 | 1012.4 |
| 20260508224248 | 101 | 263 | 14.0 | 23.0 | 0.00 | 0.00 | 0.00 | 10 | 1012.2 |
| 20260508223746 | 101 | 247 | 15.0 | 17.0 | 0.00 | 0.00 | 0.00 | 10 | 1012.4 |
| 20260508223243 | 101 | 250 | 19.0 | 24.0 | 0.00 | 0.00 | 0.00 | 11 | 1012.5 |
| 20260508222741 | 101 | 242 | 15.0 | 21.0 | 0.00 | 0.00 | 0.00 | 11 | 1012.6 |
| 20260508222238 | 102 | 288 | 5.0 | 20.0 | 0.00 | 0.00 | 0.00 | 10 | 1012.5 |
| 20260508221734 | 102 | 255 | 9.0 | 17.0 | 0.00 | 0.00 | 0.00 | 10 | 1012.5 |
| 20260508221230 | 102 | 243 | 18.0 | 21.0 | 0.00 | 0.00 | 0.00 | 11 | 1012.6 |
| 20260508220726 | 102 | 282 | 7.0 | 16.0 | 0.00 | 0.00 | 0.00 | 10 | 1012.5 |
| 20260508220223 | 101 | 249 | 15.0 | 21.0 | 0.00 | 0.00 | 0.00 | 10 | 1012.8 |
| 20260508215719 | 102 | 248 | 17.0 | 23.0 | 0.00 | 0.00 | 0.00 | 10 | 1012.8 |
| 20260508215216 | 102 | 245 | 17.0 | 19.0 | 0.00 | 0.00 | 0.00 | 10 | 1012.8 |
| 20260508214713 | 102 | 252 | 20.0 | 21.0 | 0.00 | 0.00 | 0.00 | 10 | 1012.8 |
| 20260508214211 | 104 | 246 | 9.0 | 14.0 | 0.00 | 0.00 | 0.00 | 10 | 1012.8 |
| 20260508213707 | 102 | 260 | 11.0 | 15.0 | 0.00 | 0.00 | 0.00 | 10 | 1012.9 |
| 20260508213203 | 102 | 254 | 9.0 | 15.0 | 0.00 | 0.00 | 0.00 | 10 | 1013.1 |
| 20260508212700 | 102 | 237 | 9.0 | 20.0 | 0.00 | 0.00 | 0.00 | 11 | 1013.0 |
| 20260508212156 | 103 | 240 | 15.0 | 16.0 | 0.00 | 0.00 | 0.00 | 10 | 1013.0 |
| 20260508211652 | 102 | 261 | 15.0 | 22.0 | 0.00 | 0.00 | 0.00 | 11 | 1013.2 |
| 20260508211148 | 103 | 239 | 12.0 | 17.0 | 0.00 | 0.00 | 0.00 | 11 | 1013.3 |
| 20260508210645 | 103 | 265 | 13.0 | 17.0 | 0.00 | 0.00 | 0.00 | 10 | 1013.5 |
| 20260508210143 | 102 | 234 | 12.0 | 15.0 | 0.00 | 0.00 | 0.00 | 11 | 1013.5 |
| 20260508205640 | 102 | 265 | 10.0 | 16.0 | 0.00 | 0.00 | 0.00 | 11 | 1013.3 |
| 20260508205136 | 103 | 256 | 11.0 | 13.0 | 0.00 | 0.00 | 0.00 | 11 | 1013.5 |
| 20260508204632 | 103 | 276 | 3.0 | 14.0 | 0.00 | 0.00 | 0.00 | 10 | 1013.4 |
| 20260508204128 | 104 | 324 | 7.0 | 11.0 | 0.00 | 0.00 | 0.00 | 10 | 1013.3 |
| 20260508203625 | 102 | 305 | 8.0 | 10.0 | 0.00 | 0.00 | 0.00 | 11 | 1013.6 |
| 20260508203121 | 102 | 333 | 9.0 | 12.0 | 0.00 | 0.00 | 0.00 | 11 | 1013.5 |
| 20260508202617 | 102 | 313 | 8.0 | 13.0 | 0.00 | 0.00 | 0.00 | 10 | 1013.5 |
| 20260508202115 | 102 | 217 | 5.0 | 14.0 | 0.00 | 0.00 | 0.00 | 11 | 1013.4 |
| 20260508201611 | 103 | 286 | 9.0 | 15.0 | 0.00 | 0.00 | 0.00 | 10 | 1013.6 |
| 20260508201108 | 102 | 316 | 6.0 | 14.0 | 0.00 | 0.00 | 0.00 | 11 | 1013.6 |
| 20260508200605 | 102 | 312 | 9.0 | 14.0 | 0.00 | 0.00 | 0.00 | 11 | 1013.7 |
| 20260508195557 | 102 | 296 | 11.0 | 17.0 | 0.00 | 0.00 | 0.00 | 11 | 1013.7 |
| 20260508195054 | 101 | 314 | 10.0 | 14.0 | 0.00 | 0.00 | 0.00 | 11 | 1013.7 |
| 20260508194551 | 101 | 289 | 6.0 | 16.0 | 0.00 | 0.00 | 0.00 | 12 | 1013.8 |
| 20260508194048 | 102 | 316 | 9.0 | 12.0 | 0.00 | 0.00 | 0.00 | 12 | 1013.9 |
| 20260508193544 | 103 | 246 | 9.0 | 12.0 | 0.00 | 0.00 | 0.00 | 11 | 1014.0 |
| 20260508193041 | 102 | 304 | 5.0 | 14.0 | 0.00 | 0.00 | 0.00 | 11 | 1013.9 |
| 20260508192538 | 101 | 261 | 8.0 | 16.0 | 0.00 | 0.00 | 0.00 | 11 | 1014.0 |
| 20260508192035 | 102 | 320 | 11.0 | 15.0 | 0.00 | 0.00 | 0.00 | 10 | 1014.0 |
| 20260508191532 | 102 | 338 | 3.0 | 6.0 | 0.00 | 0.00 | 0.00 | 11 | 1014.1 |
| 20260508191028 | 102 | 325 | 7.0 | 10.0 | 0.00 | 0.00 | 0.00 | 11 | 1014.1 |
| 20260508190526 | 101 | 356 | 2.0 | 11.0 | 0.00 | 0.00 | 0.00 | 11 | 1014.3 |
| 20260508190022 | 102 | 257 | 1.0 | 5.0 | 0.00 | 0.00 | 0.00 | 11 | 1014.3 |
| 20260508185519 | 104 | 228 | 1.0 | 3.0 | 0.00 | 0.00 | 0.00 | 12 | 1014.4 |
| 20260508185017 | 103 | 320 | 1.0 | 3.0 | 0.00 | 0.00 | 0.00 | 13 | 1014.3 |
| 20260508184514 | 102 | 44 | 0.0 | 2.0 | 0.00 | 0.00 | 0.00 | 12 | 1014.4 |
| 20260508184011 | 101 | 53 | 3.0 | 6.0 | 0.00 | 0.00 | 0.00 | 12 | 1014.5 |
| 20260508183507 | 101 | 93 | 3.0 | 6.0 | 0.00 | 0.00 | 0.00 | 13 | 1014.5 |
| 20260508183003 | 101 | 130 | 4.0 | 4.0 | 0.00 | 0.00 | 0.00 | 12 | 1014.3 |
| 20260508182500 | 101 | 119 | 5.0 | 6.0 | 0.00 | 0.00 | 0.00 | 12 | 1014.6 |
| 20260508181956 | 101 | 105 | 3.0 | 8.0 | 0.00 | 0.00 | 0.00 | 13 | 1014.5 |
| 20260508181452 | 100 | 174 | 3.0 | 4.0 | 0.00 | 0.00 | 0.00 | 13 | 1014.5 |
| 20260508180950 | 101 | 191 | 3.0 | 4.0 | 0.00 | 0.00 | 0.00 | 13 | 1014.6 |
| 20260508180446 | 100 | 109 | 4.0 | 6.0 | 0.00 | 0.00 | 0.00 | 13 | 1014.7 |
| 20260508175942 | 100 | 309 | 4.0 | 4.0 | 0.00 | 0.00 | 0.00 | 14 | 1014.8 |
| 20260508175439 | 100 | 161 | 1.0 | 7.0 | 0.00 | 0.00 | 0.00 | 13 | 1014.8 |
| 20260508174937 | 100 | 216 | 3.0 | 4.0 | 0.00 | 0.00 | 0.00 | 13 | 1014.8 |
| 20260508174434 | 99 | 180 | 2.0 | 5.0 | 0.00 | 0.00 | 0.00 | 13 | 1014.9 |
| 20260508173931 | 100 | 80 | 1.0 | 5.0 | 0.00 | 0.00 | 0.00 | 13 | 1014.9 |
| 20260508173428 | 99 | 160 | 1.0 | 5.0 | 0.00 | 0.00 | 0.00 | 13 | 1014.8 |
| 20260508172923 | 99 | 108 | 2.0 | 5.0 | 0.00 | 0.00 | 0.00 | 13 | 1014.7 |
| 20260508172422 | 98 | 107 | 2.0 | 6.0 | 0.00 | 0.00 | 0.00 | 14 | 1014.8 |
| 20260508171917 | 98 | 182 | 2.0 | 6.0 | 0.00 | 0.00 | 0.00 | 14 | 1014.7 |
| 20260508171414 | 98 | 145 | 2.0 | 5.0 | 0.00 | 0.00 | 0.00 | 14 | 1014.9 |
| 20260508170910 | 98 | 102 | 3.0 | 5.0 | 0.00 | 0.00 | 0.00 | 15 | 1015.0 |
| 20260508170408 | 99 | 114 | 4.0 | 4.0 | 0.00 | 0.00 | 0.00 | 14 | 1014.9 |
| 20260508165904 | 98 | 208 | 2.0 | 4.0 | 0.00 | 0.00 | 0.00 | 15 | 1014.9 |
| 20260508165403 | 97 | 239 | 3.0 | 3.0 | 0.00 | 0.00 | 0.00 | 15 | 1014.9 |
| 20260508164858 | 96 | 170 | 3.0 | 5.0 | 0.00 | 0.00 | 0.00 | 16 | 1015.1 |
| 20260508164355 | 96 | 135 | 2.0 | 4.0 | 0.00 | 0.00 | 0.00 | 16 | 1015.2 |
| 20260508163853 | 96 | 111 | 0.0 | 5.0 | 0.00 | 0.00 | 0.00 | 16 | 1015.1 |
| 20260508163350 | 95 | 188 | 3.0 | 4.0 | 0.00 | 0.00 | 0.00 | 17 | 1015.2 |
| 20260508162845 | 95 | 111 | 1.0 | 4.0 | 0.00 | 0.00 | 0.00 | 17 | 1015.1 |
| 20260508162342 | 95 | 177 | 0.0 | 3.0 | 0.00 | 0.00 | 0.00 | 17 | 1015.1 |
| 20260508161839 | 93 | 171 | 2.0 | 2.0 | 0.00 | 0.00 | 0.00 | 17 | 1015.0 |
| 20260508161337 | 94 | 100 | 2.0 | 3.0 | 0.00 | 0.00 | 0.00 | 17 | 1015.1 |
| 20260508160834 | 93 | 169 | 2.0 | 4.0 | 0.00 | 0.00 | 0.00 | 18 | 1015.1 |
| 20260508160333 | 92 | 197 | 2.0 | 3.0 | 0.00 | 0.00 | 0.00 | 19 | 1015.2 |
| 20260508155828 | 92 | 105 | 2.0 | 2.0 | 0.00 | 0.00 | 0.00 | 19 | 1015.2 |
| 20260508155326 | 92 | 78 | 2.0 | 4.0 | 0.00 | 0.00 | 0.00 | 19 | 1015.1 |
| 20260508154822 | 92 | 70 | 2.0 | 3.0 | 0.00 | 0.00 | 0.00 | 19 | 1015.2 |
| 20260508154320 | 91 | 63 | 1.0 | 3.0 | 0.00 | 0.00 | 0.00 | 20 | 1015.0 |
| 20260508153816 | 90 | 47 | 1.0 | 4.0 | 0.00 | 0.00 | 0.00 | 20 | 1015.1 |
| 20260508153314 | 90 | 110 | 5.0 | 5.0 | 0.00 | 0.00 | 0.00 | 20 | 1015.2 |
| 20260508152810 | 89 | 93 | 2.0 | 3.0 | 0.00 | 0.00 | 0.00 | 20 | 1015.3 |
| 20260508152306 | 90 | 89 | 3.0 | 4.0 | 0.00 | 0.00 | 0.00 | 20 | 1015.2 |
| 20260508151802 | 89 | 198 | 0.0 | 6.0 | 0.00 | 0.00 | 0.00 | 21 | 1015.2 |
| 20260508151300 | 90 | 357 | 1.0 | 2.0 | 0.00 | 0.00 | 0.00 | 20 | 1015.2 |
| 20260508150756 | 90 | 101 | 2.0 | 3.0 | 0.00 | 0.00 | 0.00 | 20 | 1015.1 |
| 20260508150253 | 89 | 17 | 0.0 | 2.0 | 0.00 | 0.00 | 0.00 | 21 | 1015.2 |
| 20260508145749 | 88 | 83 | 0.0 | 2.0 | 0.00 | 0.00 | 0.00 | 21 | 1015.1 |
| 20260508145245 | 87 | 93 | 5.0 | 5.0 | 0.00 | 0.00 | 0.00 | 22 | 1015.0 |
| 20260508144742 | 87 | 294 | 2.0 | 2.0 | 0.00 | 0.00 | 0.00 | 22 | 1015.1 |
| 20260508144240 | 86 | 164 | 0.0 | 2.0 | 0.00 | 0.00 | 0.00 | 23 | 1015.1 |
| 20260508143737 | 86 | 231 | 0.0 | 2.0 | 0.00 | 0.00 | 0.00 | 23 | 1015.0 |
| 20260508143234 | 84 | 276 | 0.0 | 4.0 | 0.00 | 0.00 | 0.00 | 24 | 1015.1 |
| 20260508142730 | 86 | 89 | 0.0 | 2.0 | 0.00 | 0.00 | 0.00 | 23 | 1015.0 |
| 20260508142228 | 84 | 214 | 1.0 | 2.0 | 0.00 | 0.00 | 0.00 | 24 | 1015.0 |
| 20260508141724 | 84 | 24 | 1.0 | 1.0 | 0.00 | 0.00 | 0.00 | 24 | 1015.1 |
| 20260508141222 | 82 | 308 | 1.0 | 2.0 | 0.00 | 0.00 | 0.00 | 25 | 1015.0 |
| 20260508140719 | 80 | 106 | 0.0 | 2.0 | 0.00 | 0.00 | 0.00 | 26 | 1014.7 |
| 20260508140215 | 80 | 262 | 2.0 | 2.0 | 0.00 | 0.00 | 0.00 | 27 | 1015.0 |
| 20260508135712 | 78 | 12 | 0.0 | 3.0 | 0.00 | 0.00 | 0.00 | 28 | 1015.0 |
| 20260508135207 | 80 | 4 | 0.0 | 2.0 | 0.00 | 0.00 | 0.00 | 27 | 1014.7 |
| 20260508134703 | 79 | 111 | 1.0 | 2.0 | 0.00 | 0.00 | 0.00 | 28 | 1014.5 |
| 20260508134201 | 78 | 276 | 0.0 | 2.0 | 0.00 | 0.00 | 0.00 | 27 | 1014.6 |
| 20260508133658 | 75 | 190 | 2.0 | 2.0 | 0.00 | 0.00 | 0.00 | 29 | 1014.6 |
| 20260508133155 | 75 | 66 | 0.0 | 2.0 | 0.00 | 0.00 | 0.00 | 28 | 1014.5 |
| 20260508132653 | 74 | 218 | 0.0 | 2.0 | 0.00 | 0.00 | 0.00 | 30 | 1014.5 |
| 20260508132149 | 71 | 200 | 2.0 | 2.0 | 0.00 | 0.00 | 0.00 | 31 | 1014.4 |
| 20260508131645 | 71 | 221 | 2.0 | 2.0 | 0.00 | 0.00 | 0.00 | 31 | 1014.4 |
| 20260508131142 | 72 | 215 | 0.0 | 3.0 | 0.00 | 0.00 | 0.00 | 31 | 1014.4 |
| 20260508130638 | 72 | 109 | 1.0 | 2.0 | 0.00 | 0.00 | 0.00 | 31 | 1014.2 |
| 20260508130136 | 73 | 113 | 0.0 | 2.0 | 0.00 | 0.00 | 0.00 | 30 | 1014.2 |
| 20260508125631 | 72 | 204 | 0.0 | 3.0 | 0.00 | 0.00 | 0.00 | 30 | 1014.2 |
| 20260508125128 | 72 | 81 | 1.0 | 2.0 | 0.00 | 0.00 | 0.00 | 31 | 1014.1 |
| 20260508124626 | 73 | 148 | 1.0 | 2.0 | 0.00 | 0.00 | 0.00 | 30 | 1014.2 |
| 20260508124123 | 73 | 118 | 2.0 | 3.0 | 0.00 | 0.00 | 0.00 | 30 | 1013.9 |
| 20260508123621 | 74 | 79 | 1.0 | 2.0 | 0.00 | 0.00 | 0.00 | 30 | 1013.9 |
| 20260508123118 | 75 | 234 | 1.0 | 2.0 | 0.00 | 0.00 | 0.00 | 30 | 1013.9 |
| 20260508122614 | 75 | 199 | 0.0 | 2.0 | 0.00 | 0.00 | 0.00 | 29 | 1013.9 |
| 20260508122112 | 74 | 268 | 0.0 | 2.0 | 0.00 | 0.00 | 0.00 | 30 | 1013.7 |
| 20260508121610 | 74 | 174 | 2.0 | 2.0 | 0.00 | 0.00 | 0.00 | 30 | 1014.0 |
| 20260508121108 | 74 | 221 | 2.0 | 4.0 | 0.00 | 0.00 | 0.00 | 30 | 1013.9 |
| 20260508120605 | 75 | 345 | 1.0 | 3.0 | 0.00 | 0.00 | 0.00 | 28 | 1014.0 |
| 20260508120104 | 77 | 333 | 2.0 | 2.0 | 0.00 | 0.00 | 0.00 | 28 | 1013.9 |
| 20260508115601 | 77 | 69 | 0.0 | 1.0 | 0.00 | 0.00 | 0.00 | 28 | 1013.7 |
| 20260508115057 | 77 | 289 | 2.0 | 3.0 | 0.00 | 0.00 | 0.00 | 27 | 1013.8 |
| 20260508114554 | 79 | 27 | 5.0 | 5.0 | 0.00 | 0.00 | 0.00 | 26 | 1013.9 |
| 20260508114050 | 77 | 111 | 3.0 | 5.0 | 0.00 | 0.00 | 0.00 | 27 | 1013.7 |
| 20260508113548 | 75 | 291 | 2.0 | 2.0 | 0.00 | 0.00 | 0.00 | 28 | 1013.8 |
| 20260508113046 | 73 | 205 | 0.0 | 3.0 | 0.00 | 0.00 | 0.00 | 30 | 1013.7 |
| 20260508112542 | 74 | 15 | 2.0 | 2.0 | 0.00 | 0.00 | 0.00 | 32 | 1013.7 |
| 20260508112039 | 75 | 221 | 1.0 | 2.0 | 0.00 | 0.00 | 0.00 | 29 | 1013.7 |
| 20260508111536 | 75 | 324 | 2.0 | 2.0 | 0.00 | 0.00 | 0.00 | 29 | 1014.0 |
| 20260508111033 | 74 | 178 | 2.0 | 3.0 | 0.00 | 0.00 | 0.00 | 29 | 1013.8 |
| 20260508110531 | 76 | 353 | 0.0 | 2.0 | 0.00 | 0.00 | 0.00 | 28 | 1013.7 |
| 20260508110027 | 77 | 342 | 2.0 | 2.0 | 0.00 | 0.00 | 0.00 | 28 | 1013.6 |
| 20260508105522 | 78 | 16 | 2.0 | 4.0 | 0.00 | 0.00 | 0.00 | 27 | 1013.6 |
| 20260508105019 | 76 | 142 | 3.0 | 4.0 | 0.00 | 0.00 | 0.00 | 27 | 1013.6 |
| 20260508104517 | 76 | 39 | 2.0 | 2.0 | 0.00 | 0.00 | 0.00 | 28 | 1013.7 |
| 20260508104013 | 77 | 345 | 1.0 | 2.0 | 0.00 | 0.00 | 0.00 | 27 | 1013.6 |
| 20260508103510 | 78 | 246 | 0.0 | 3.0 | 0.00 | 0.00 | 0.00 | 26 | 1013.6 |
| 20260508103008 | 76 | 320 | 0.0 | 2.0 | 0.00 | 0.00 | 0.00 | 28 | 1013.7 |
| 20260508102505 | 78 | 62 | 2.0 | 3.0 | 0.00 | 0.00 | 0.00 | 27 | 1013.5 |
| 20260508102002 | 77 | 109 | 1.0 | 2.0 | 0.00 | 0.00 | 0.00 | 27 | 1013.9 |
| 20260508101500 | 77 | 103 | 0.0 | 2.0 | 0.00 | 0.00 | 0.00 | 27 | 1013.7 |
| 20260508100957 | 77 | 73 | 0.0 | 2.0 | 0.00 | 0.00 | 0.00 | 27 | 1013.9 |
| 20260508100455 | 77 | 343 | 0.0 | 3.0 | 0.00 | 0.00 | 0.00 | 27 | 1013.9 |
| 20260508095951 | 78 | 237 | 0.0 | 2.0 | 0.00 | 0.00 | 0.00 | 26 | 1013.7 |
| 20260508095449 | 77 | 129 | 1.0 | 3.0 | 0.00 | 0.00 | 0.00 | 27 | 1013.9 |
| 20260508094946 | 77 | 291 | 2.0 | 6.0 | 0.00 | 0.00 | 0.00 | 26 | 1013.8 |
| 20260508094442 | 78 | 92 | 3.0 | 4.0 | 0.00 | 0.00 | 0.00 | 26 | 1013.7 |
| 20260508093939 | 79 | 89 | 1.0 | 2.0 | 0.00 | 0.00 | 0.00 | 26 | 1013.9 |
| 20260508093437 | 80 | 121 | 1.0 | 2.0 | 0.00 | 0.00 | 0.00 | 25 | 1013.9 |
| 20260508092934 | 79 | 19 | 1.0 | 3.0 | 0.00 | 0.00 | 0.00 | 25 | 1014.0 |
| 20260508092432 | 79 | 268 | 2.0 | 4.0 | 0.00 | 0.00 | 0.00 | 25 | 1013.9 |
| 20260508091930 | 78 | 171 | 1.0 | 3.0 | 0.00 | 0.00 | 0.00 | 26 | 1014.0 |
| 20260508091426 | 78 | 141 | 2.0 | 3.0 | 0.00 | 0.00 | 0.00 | 26 | 1014.0 |
| 20260508090923 | 80 | 210 | 0.0 | 1.0 | 0.00 | 0.00 | 0.00 | 25 | 1013.9 |
| 20260508090422 | 81 | 89 | 3.0 | 5.0 | 0.00 | 0.00 | 0.00 | 24 | 1014.0 |
| 20260508085917 | 82 | 243 | 0.0 | 4.0 | 0.00 | 0.00 | 0.00 | 23 | 1013.9 |
| 20260508085414 | 81 | 98 | 4.0 | 5.0 | 0.00 | 0.00 | 0.00 | 23 | 1013.8 |
| 20260508084911 | 79 | 353 | 3.0 | 4.0 | 0.00 | 0.00 | 0.00 | 24 | 1014.0 |
| 20260508084408 | 80 | 128 | 1.0 | 4.0 | 0.00 | 0.00 | 0.00 | 24 | 1014.0 |
| 20260508083906 | 78 | 230 | 3.0 | 3.0 | 0.00 | 0.00 | 0.00 | 24 | 1014.1 |
| 20260508083403 | 79 | 324 | 0.0 | 1.0 | 0.00 | 0.00 | 0.00 | 24 | 1014.3 |
| 20260508082903 | 78 | 174 | 0.0 | 2.0 | 0.00 | 0.00 | 0.00 | 24 | 1014.3 |
| 20260508082401 | 79 | 264 | 2.0 | 4.0 | 0.00 | 0.00 | 0.00 | 24 | 1014.3 |
| 20260508081858 | 80 | 226 | 2.0 | 3.0 | 0.00 | 0.00 | 0.00 | 24 | 1014.3 |
| 20260508081355 | 80 | 141 | 2.0 | 5.0 | 0.00 | 0.00 | 0.00 | 24 | 1014.5 |
| 20260508080851 | 80 | 271 | 1.0 | 4.0 | 0.00 | 0.00 | 0.00 | 24 | 1014.6 |
| 20260508080350 | 80 | 313 | 3.0 | 4.0 | 0.00 | 0.00 | 0.00 | 24 | 1014.5 |
| 20260508075846 | 80 | 161 | 2.0 | 4.0 | 0.00 | 0.00 | 0.00 | 24 | 1014.5 |
| 20260508075343 | 80 | 72 | 2.0 | 4.0 | 0.00 | 0.00 | 0.00 | 24 | 1014.6 |
| 20260508074840 | 80 | 60 | 0.0 | 1.0 | 0.00 | 0.00 | 0.00 | 24 | 1014.5 |
| 20260508074337 | 81 | 273 | 1.0 | 3.0 | 0.00 | 0.00 | 0.00 | 23 | 1014.7 |
| 20260508073834 | 81 | 154 | 3.0 | 4.0 | 0.00 | 0.00 | 0.00 | 23 | 1014.6 |
| 20260508073332 | 82 | 77 | 2.0 | 4.0 | 0.00 | 0.00 | 0.00 | 22 | 1014.6 |
| 20260508072828 | 82 | 229 | 3.0 | 5.0 | 0.00 | 0.00 | 0.00 | 22 | 1014.6 |
| 20260508072325 | 83 | 232 | 6.0 | 9.0 | 0.00 | 0.00 | 0.00 | 22 | 1014.7 |
| 20260508071822 | 83 | 112 | 3.0 | 4.0 | 0.00 | 0.00 | 0.00 | 21 | 1014.6 |
| 20260508071320 | 83 | 323 | 3.0 | 7.0 | 0.00 | 0.00 | 0.00 | 21 | 1014.7 |
| 20260508070817 | 82 | 84 | 7.0 | 8.0 | 0.00 | 0.00 | 0.00 | 22 | 1014.5 |
| 20260508070316 | 84 | 275 | 0.0 | 2.0 | 0.00 | 0.00 | 0.00 | 21 | 1014.5 |
| 20260508065813 | 83 | 323 | 4.0 | 5.0 | 0.00 | 0.00 | 0.00 | 22 | 1014.9 |
| 20260508065311 | 84 | 280 | 2.0 | 9.0 | 0.00 | 0.00 | 0.00 | 21 | 1014.7 |
| 20260508064809 | 86 | 234 | 0.0 | 3.0 | 0.00 | 0.00 | 0.00 | 20 | 1014.6 |
| 20260508064306 | 88 | 259 | 6.0 | 12.0 | 0.00 | 0.00 | 0.00 | 19 | 1014.3 |
| 20260508063803 | 87 | 325 | 6.0 | 8.0 | 0.00 | 0.00 | 0.00 | 18 | 1014.6 |
| 20260508063301 | 85 | 109 | 11.0 | 15.0 | 0.00 | 0.00 | 0.00 | 19 | 1014.7 |
| 20260508062758 | 86 | 194 | 3.0 | 7.0 | 0.00 | 0.00 | 0.00 | 20 | 1014.4 |
| 20260508062256 | 89 | 282 | 7.0 | 14.0 | 0.00 | 0.00 | 0.00 | 17 | 1014.1 |
| 20260508061752 | 88 | 235 | 11.0 | 16.0 | 0.00 | 0.00 | 0.00 | 18 | 1014.5 |
| 20260508061249 | 89 | 94 | 7.0 | 21.0 | 0.00 | 0.00 | 0.00 | 17 | 1014.6 |
| 20260508060746 | 89 | 327 | 6.0 | 16.0 | 0.00 | 0.00 | 0.00 | 17 | 1014.4 |
| 20260508060244 | 87 | 309 | 9.0 | 17.0 | 0.00 | 0.00 | 0.00 | 18 | 1014.6 |
| 20260508055739 | 90 | 289 | 9.0 | 22.0 | 0.00 | 0.00 | 0.00 | 16 | 1014.3 |
| 20260508055236 | 89 | 247 | 11.0 | 17.0 | 0.00 | 0.00 | 0.00 | 16 | 1014.4 |
| 20260508054733 | 89 | 328 | 11.0 | 15.0 | 0.00 | 0.00 | 0.00 | 16 | 1014.4 |
| 20260508054226 | 88 | 230 | 8.0 | 19.0 | 0.00 | 0.00 | 0.00 | 20 | 1014.7 |
| 20260508053722 | 90 | 237 | 6.0 | 20.0 | 0.00 | 0.00 | 0.00 | 17 | 1014.5 |
| 20260508053220 | 90 | 252 | 11.0 | 15.0 | 0.00 | 0.00 | 0.00 | 16 | 1014.6 |
| 20260508052717 | 89 | 303 | 9.0 | 11.0 | 0.00 | 0.00 | 0.00 | 16 | 1014.3 |
| 20260508052213 | 89 | 266 | 8.0 | 13.0 | 0.00 | 0.00 | 0.00 | 16 | 1014.6 |
| 20260508051710 | 90 | 179 | 8.0 | 20.0 | 0.00 | 0.00 | 0.00 | 19 | 1014.6 |
| 20260508051205 | 89 | 269 | 7.0 | 17.0 | 0.00 | 0.00 | 0.00 | 16 | 1014.6 |
| 20260508050702 | 89 | 230 | 18.0 | 23.0 | 0.00 | 0.00 | 0.00 | 17 | 1014.5 |
| 20260508050200 | 89 | 226 | 24.0 | 29.0 | 0.00 | 0.00 | 0.00 | 17 | 1014.3 |
| 20260508045700 | 89 | 249 | 9.0 | 17.0 | 0.00 | 0.00 | 0.00 | 16 | 1014.6 |
| 20260508045158 | 90 | 276 | 5.0 | 22.0 | 0.00 | 0.00 | 0.00 | 16 | 1014.5 |
| 20260508044655 | 89 | 251 | 14.0 | 16.0 | 0.00 | 0.00 | 0.00 | 17 | 1014.5 |
| 20260508044151 | 90 | 273 | 12.0 | 25.0 | 0.00 | 0.00 | 0.00 | 17 | 1014.4 |
| 20260508043647 | 89 | 273 | 9.0 | 18.0 | 0.00 | 0.00 | 0.00 | 17 | 1014.2 |
| 20260508043146 | 89 | 256 | 13.0 | 20.0 | 0.00 | 0.00 | 0.00 | 17 | 1014.5 |
| 20260508042642 | 89 | 236 | 22.0 | 23.0 | 0.00 | 0.00 | 0.00 | 16 | 1014.3 |
| 20260508042139 | 89 | 247 | 17.0 | 19.0 | 0.00 | 0.00 | 0.00 | 17 | 1014.5 |
| 20260508041635 | 89 | 244 | 13.0 | 25.0 | 0.00 | 0.00 | 0.00 | 18 | 1014.3 |
| 20260508041132 | 89 | 292 | 7.0 | 18.0 | 0.00 | 0.00 | 0.00 | 19 | 1014.1 |
| 20260508040629 | 89 | 265 | 14.0 | 19.0 | 0.00 | 0.00 | 0.00 | 17 | 1014.0 |
| 20260508040127 | 89 | 297 | 11.0 | 20.0 | 0.00 | 0.00 | 0.00 | 18 | 1013.9 |
| 20260508035624 | 89 | 287 | 8.0 | 23.0 | 0.00 | 0.00 | 0.00 | 19 | 1013.7 |
| 20260508035121 | 89 | 275 | 8.0 | 20.0 | 0.00 | 0.00 | 0.00 | 19 | 1013.7 |
| 20260508034618 | 89 | 301 | 16.0 | 19.0 | 0.00 | 0.00 | 0.00 | 20 | 1013.7 |
| 20260508034115 | 89 | 253 | 12.0 | 22.0 | 0.00 | 0.00 | 0.00 | 21 | 1013.6 |
| 20260508033612 | 89 | 298 | 12.0 | 20.0 | 0.00 | 0.00 | 0.00 | 22 | 1013.6 |
| 20260508033110 | 89 | 240 | 14.0 | 20.0 | 0.00 | 0.00 | 0.00 | 23 | 1013.3 |
| 20260508032606 | 88 | 314 | 21.0 | 27.0 | 0.00 | 0.00 | 0.00 | 24 | 1013.3 |
| 20260508032104 | 88 | 287 | 11.0 | 22.0 | 0.00 | 0.00 | 0.00 | 26 | 1013.1 |
| 20260508031601 | 88 | 299 | 15.0 | 26.0 | 0.00 | 0.00 | 0.00 | 26 | 1013.2 |
| 20260508031057 | 88 | 288 | 7.0 | 19.0 | 0.00 | 0.00 | 0.00 | 25 | 1013.2 |
| 20260508030553 | 88 | 283 | 11.0 | 22.0 | 0.00 | 0.00 | 0.00 | 26 | 1013.1 |
| 20260508030052 | 89 | 295 | 12.0 | 20.0 | 0.00 | 0.00 | 0.00 | 26 | 1012.9 |
| 20260508025547 | 89 | 293 | 19.0 | 26.0 | 0.00 | 0.00 | 0.00 | 27 | 1012.9 |
| 20260508025045 | 89 | 277 | 9.0 | 21.0 | 0.00 | 0.00 | 0.00 | 27 | 1013.0 |
| 20260508024540 | 89 | 279 | 9.0 | 23.0 | 0.00 | 0.00 | 0.00 | 26 | 1012.8 |
| 20260508024038 | 89 | 305 | 14.0 | 26.0 | 0.00 | 0.00 | 0.00 | 29 | 1012.8 |
| 20260508023534 | 89 | 290 | 12.0 | 22.0 | 0.00 | 0.00 | 0.00 | 28 | 1012.8 |
| 20260508023032 | 89 | 314 | 17.0 | 23.0 | 0.00 | 0.00 | 0.00 | 28 | 1012.9 |
| 20260508022527 | 89 | 266 | 7.0 | 18.0 | 0.00 | 0.00 | 0.00 | 26 | 1012.8 |
| 20260508022025 | 89 | 309 | 15.0 | 23.0 | 0.00 | 0.00 | 0.00 | 28 | 1012.5 |
| 20260508021520 | 89 | 296 | 15.0 | 25.0 | 0.00 | 0.00 | 0.00 | 29 | 1012.6 |
| 20260508021016 | 89 | 310 | 17.0 | 25.0 | 0.00 | 0.00 | 0.00 | 27 | 1012.6 |
| 20260508020514 | 90 | 284 | 10.0 | 23.0 | 0.00 | 0.00 | 0.00 | 27 | 1012.8 |
| 20260508020012 | 90 | 295 | 8.0 | 23.0 | 0.00 | 0.00 | 0.00 | 27 | 1012.5 |
| 20260508015509 | 89 | 293 | 12.0 | 19.0 | 0.00 | 0.00 | 0.00 | 28 | 1012.6 |
| 20260508015006 | 90 | 305 | 19.0 | 26.0 | 0.00 | 0.00 | 0.00 | 29 | 1012.7 |
| 20260508014502 | 90 | 285 | 14.0 | 17.0 | 0.00 | 0.00 | 0.00 | 29 | 1012.6 |
| 20260508013958 | 90 | 309 | 11.0 | 17.0 | 0.00 | 0.00 | 0.00 | 27 | 1012.5 |
| 20260508013454 | 90 | 282 | 6.0 | 23.0 | 0.00 | 0.00 | 0.00 | 27 | 1012.7 |
| 20260508012952 | 91 | 299 | 10.0 | 18.0 | 0.00 | 0.00 | 0.00 | 27 | 1012.8 |
| 20260508012449 | 91 | 293 | 6.0 | 18.0 | 0.00 | 0.00 | 0.00 | 24 | 1012.7 |
| 20260508011946 | 92 | 264 | 10.0 | 20.0 | 0.00 | 0.00 | 0.00 | 24 | 1012.7 |
| 20260508011444 | 93 | 257 | 14.0 | 19.0 | 0.00 | 0.00 | 0.00 | 23 | 1012.6 |
| 20260508010941 | 93 | 263 | 10.0 | 19.0 | 0.00 | 0.00 | 0.00 | 23 | 1012.9 |
| 20260508010438 | 93 | 256 | 12.0 | 19.0 | 0.00 | 0.00 | 0.00 | 23 | 1012.8 |
| 20260508005935 | 94 | 262 | 11.0 | 19.0 | 0.00 | 0.00 | 0.00 | 22 | 1012.9 |
| 20260508005432 | 94 | 259 | 15.0 | 20.0 | 0.00 | 0.00 | 0.00 | 22 | 1012.8 |
| 20260508004928 | 94 | 255 | 12.0 | 23.0 | 0.00 | 0.00 | 0.00 | 21 | 1012.8 |
| 20260508004425 | 95 | 258 | 12.0 | 17.0 | 0.00 | 0.00 | 0.00 | 21 | 1012.8 |
| 20260508003921 | 95 | 245 | 16.0 | 20.0 | 0.00 | 0.00 | 0.00 | 20 | 1012.9 |
| 20260508003418 | 95 | 278 | 4.0 | 20.0 | 0.00 | 0.00 | 0.00 | 19 | 1013.0 |
| 20260508002916 | 96 | 254 | 8.0 | 17.0 | 0.00 | 0.00 | 0.00 | 20 | 1013.0 |
| 20260508002412 | 96 | 258 | 13.0 | 20.0 | 0.00 | 0.00 | 0.00 | 20 | 1012.9 |
| 20260508001908 | 97 | 257 | 13.0 | 17.0 | 0.00 | 0.00 | 0.00 | 19 | 1012.8 |
| 20260508001404 | 96 | 247 | 11.0 | 15.0 | 0.00 | 0.00 | 0.00 | 18 | 1012.8 |
| 20260508000901 | 97 | 241 | 4.0 | 15.0 | 0.00 | 0.00 | 0.00 | 19 | 1013.0 |
| 20260508000357 | 97 | 269 | 10.0 | 17.0 | 0.00 | 0.00 | 0.00 | 18 | 1013.0 |
| 20260507235854 | 97 | 340 | 8.0 | 21.0 | 0.00 | 0.00 | 0.00 | 18 | 1012.9 |
| 20260507235352 | 98 | 293 | 6.0 | 14.0 | 0.00 | 0.00 | 0.00 | 19 | 1012.9 |
| 20260507234849 | 98 | 257 | 8.0 | 16.0 | 0.00 | 0.00 | 0.00 | 18 | 1012.8 |
| 20260507234345 | 97 | 238 | 17.0 | 19.0 | 0.00 | 0.00 | 0.00 | 17 | 1012.8 |
| 20260507233841 | 97 | 310 | 10.0 | 15.0 | 0.00 | 0.00 | 0.00 | 18 | 1013.1 |
| 20260507233339 | 97 | 236 | 9.0 | 19.0 | 0.00 | 0.00 | 0.00 | 19 | 1012.8 |